SCP
0 0 0 0 0 0 0 0 0 0 0 0 0 0 0 0 0 0 0 -0 -0 -0 -0 -0 -0 -0 -0 -0 0 -0 -0 -0 -0 -0 -0 -0 -0 -0
0 0 0 0 0 0 0 0 0 0 0 0 0 0 0 0 0 0 0 0 0 0 -0 -0 -0 -0 -0 -0 -0 -0 -0 -0 -0 -0 -0 -0 -0 -0
0 0 0 0 0 0 0 0 0 0 0 0 0 0 0 0 0 0 0 0 0 0 0 0 0 0 0 0 -0 -0 0 0 0 0 0 0 0 0
0 0 0 0 0 0 0 0 0 0 0 0 0 0 0 0 0 0 0 -0 -0 -0 -0 -0 -0 0 0 0 0 0 0 0 0 0 0 0 0 0
0 0 0 0 0 0 0 0 0 0 0 0 0 0 0 0 0 -0 -0 -0 -0 -0 -0 -0 -0 -0 -0 -0 -0 -0 -0 0 0 0 0 0 0 0
0 0 0 0 0 0 0 0 0 0 0 0 0 0 0 0 0 0 -0 -0 0 0 -0 -0 -0 -0 -0 0 0 0 0 0 0 0 0 0 0 0
0 0 0 0 0 0 0 0 0 0 0 0 0 0 0 0 -0 -0 -0 -0 -0 -0 -0 0 0 0 0 0 -0 -0 -0 -0 -0 0 0 0 0 0
0 0 0 0 0 0 0 0 0 0 0 0 0 0 0 0 0 0 -0 -0 -0 -0 0 0 0 0 0 0 0 -0 -0 -0 -0 0 0 0 0 0
0 0 0 0 0 0 0 0 0 0 0 0 0 0 0 0 0 0 0 0 0 0 0 0 0 0 0 0 0 0 0 0 0 0 0 0 0 0
0 0 0 0 0 0 0 0 0 0 0 0 0 0 0 0 0 0 0 0 0 0 0 0 0 0 0 0 0 0 0 0 0 0 0 0 0 0
0 0 0 0 0 0 0 0 0 0 0 0 0 0 0 0 0 0 0 0 0 0 0 0 0 0 0 0 0 0 -0 -0 0 0 0 0 0 0
0 0 0 0 0 0 0 0 0 0 0 0 0 0 0 0 0 0 0 0 0 0 0 0 0 0 0 0 0 0 0 0 0 0 0 0 0 0
0 0 0 0 0 0 0 0 0 0 0 0 0 0 0 0 0 0 0 0 0 0 0 0 0 0 0 0 0 0 0 0 0 0 0 0 0 0
0 0 0 0 0 0 0 0 0 0 0 0 0 0 0 0 0 0 0 0 0 0 0 0 0 0 0 0 0 0 0 0 0 0 0 0 0 0
0 0 0 0 0 0 0 0 0 0 0 0 0 0 0 0 0 0 0 0 0 0 0 0 0 0 0 0 0 0 0 0 0 0 0 0 0 0
0 0 0 0 0 0 0 0 0 0 0 0 0 0 0 0 0 0 0 0 0 0 0 0 0 0 0 0 0 0 0 0 0 0 0 0 0 0
0 0 0 0 0 0 0 0 0 0 0 0 0 0 0 0 0 0 0 0 0 0 0 0 0 0 0 0 0 0 0 0 0 0 0 0 0 0
0 0 0 0 0 0 0 0 0 0 0 0 0 0 0 0 0 0 0 0 0 0 0 0 0 0 0 0 0 0 0 0 0 0 0 0 0 0
0 0 0 0 0 0 0 0 0 0 0 0 0 0 0 0 0 0 0 0 0 0 0 0 0 0 0 0 0 0 0 0 0 0 0 0 0 0
0 0 0 0 0 0 0 0 0 0 0 0 0 0 0 0 0 0 0 0 0 0 0 0 0 0 0 0 0 0 0 0 0 0 0 0 0 0
0 0 0 0 0 0 0 0 0 0 0 0 0 0 0 0 0 0 0 0 0 0 0 0 0 0 0 0 0 0 0 0 0 0 0 0 0 -0
0 0 0 0 0 0 0 0 0 0 0 0 0 0 0 0 0 0 0 0 0 0 0 0 0 0 0 0 0 0 0 0 0 0 0 -0 -0 -0
0 0 0 0 0 0 0 0 0 0 0 0 0 0 0 0 0 0 0 0 0 0 0 0 0 0 0 0 0 0 0 0 0 0 0 -0 -0 -0
Wind_Speed_500mb
68 63 58 55 51 47 42 40 38 31 37 34 34 39 47 54 58 65 68 69 70 71 69 70 71 70 71 74 76 73 69 66 66 66 66 67 69 68
73 69 65 60 54 49 45 43 41 39 36 36 38 43 47 52 55 63 62 63 62 65 69 72 74 73 74 75 78 80 81 80 78 77 76 75 75 74
79 75 70 63 58 52 48 45 44 45 47 46 45 44 47 53 57 62 66 67 63 61 63 65 68 70 76 82 83 82 83 86 88 89 90 91 91 89
85 80 74 69 62 56 51 48 45 44 47 48 50 51 53 59 66 67 69 73 75 76 77 74 73 76 80 82 83 84 87 88 88 87 89 92 92 90
87 83 77 73 65 61 56 50 46 45 45 51 53 52 56 59 65 67 71 75 77 83 82 80 76 80 88 89 90 90 91 93 89 84 88 94 95 97
89 84 78 73 66 62 58 52 48 44 44 50 51 51 55 59 65 70 75 77 83 85 82 89 93 98 99 98 98 99 101 98 96 90 87 95 97 96
93 87 82 76 70 66 61 54 46 44 45 48 49 51 54 57 63 69 75 80 88 75 91 105 107 109 108 105 106 104 96 85 85 85 86 86 85 85
98 92 85 78 74 69 61 54 48 44 46 46 45 50 49 54 58 64 72 80 83 84 104 113 106 115 114 108 103 103 103 83 86 91 95 96 93 91
99 93 86 81 74 69 62 57 51 47 45 42 46 41 46 46 54 60 67 72 79 89 97 120 109 116 107 117 113 110 108 87 84 88 90 93 94 94
100 94 86 81 77 71 64 58 48 41 39 38 40 36 38 41 48 56 64 73 79 81 83 113 105 111 120 120 116 116 111 87 82 83 87 90 95 95
97 90 87 82 74 71 67 57 48 39 37 37 35 31 30 33 41 55 59 70 86 87 79 71 105 120 127 125 116 112 79 69 61 74 85 94 95 95
98 90 86 79 78 76 67 56 46 37 37 34 29 28 30 33 38 46 54 62 69 86 54 70 96 96 89 117 111 108 101 92 89 86 83 88 86 84
95 94 90 85 80 72 64 54 41 39 37 32 29 28 30 33 39 44 46 54 65 77 78 68 92 94 81 114 136 126 109 101 96 92 85 79 85 93
98 91 88 83 76 66 58 48 41 43 35 30 28 27 31 34 37 45 47 54 60 71 75 62 83 88 101 109 118 133 106 102 98 98 91 87 81 81
85 83 82 80 70 58 52 50 47 38 33 29 26 27 31 36 39 43 50 56 65 69 73 72 74 89 88 105 124 138 115 117 104 90 76 79 83 89
69 70 70 70 64 63 59 48 43 39 33 28 26 28 32 35 37 46 58 64 76 80 77 81 81 79 100 103 108 136 127 112 115 100 98 101 99 93
75 76 72 72 70 61 52 48 43 35 28 25 24 27 32 37 40 47 58 68 75 85 93 93 92 90 92 98 118 120 126 125 112 102 93 107 105 99
79 91 91 81 71 60 55 49 41 32 27 24 22 26 32 38 45 52 58 68 77 85 89 97 104 104 105 99 78 107 109 110 111 99 92 99 112 98
85 86 86 80 68 58 54 45 36 29 26 23 20 24 31 38 46 56 63 68 78 85 94 98 97 81 92 109 107 70 99 108 111 108 97 97 111 106
92 85 81 68 62 61 54 45 38 31 26 23 22 24 29 39 48 58 65 70 77 89 102 99 95 87 83 108 132 138 88 96 101 110 103 101 108 106
81 79 71 65 64 57 50 42 36 28 26 23 21 26 29 37 48 59 66 71 77 86 99 103 103 101 103 103 111 119 112 90 89 103 106 101 100 98
85 79 73 67 63 55 47 40 31 26 22 22 20 26 29 36 50 61 67 74 81 89 99 106 109 106 97 89 109 123 131 120 102 92 89 97 106 92
80 70 66 63 57 50 42 35 30 24 22 22 24 26 30 40 50 60 67 74 86 97 100 109 112 102 95 95 101 115 120 123 113 108 103 80 85 104
Wind_Direction_500mb
237 238 241 243 245 249 253 258 262 264 279 288 298 307 318 323 325 324 325 325 326 326 326 321 319 319 316 313 311 309 306 300 298 297 294 292 289 287
236 237 239 241 245 249 254 258 263 265 264 279 287 297 305 309 314 315 318 319 322 321 321 321 321 320 316 313 313 314 312 306 300 296 292 290 288 284
234 236 238 241 244 247 252 258 264 269 273 280 287 295 300 306 312 316 318 317 316 316 316 318 318 317 316 316 315 315 309 304 301 296 292 288 286 283
233 234 236 238 241 245 249 253 258 266 274 283 292 299 309 320 321 325 325 327 328 329 330 329 324 318 315 316 319 313 308 305 302 298 292 286 285 282
234 234 235 237 238 242 246 249 254 259 271 282 290 301 313 318 322 324 327 329 328 329 330 328 326 324 323 325 322 317 312 307 304 297 287 284 281 280
233 232 233 235 238 241 243 245 249 258 270 279 289 302 312 322 324 326 325 328 327 327 334 328 328 327 327 326 320 316 313 308 303 297 286 278 277 277
229 229 231 232 235 237 239 243 246 255 267 278 288 300 315 324 323 327 325 326 323 331 333 326 327 324 324 323 319 317 313 303 296 290 287 284 280 278
228 227 228 229 231 235 238 238 244 256 266 272 290 305 317 317 320 323 325 328 329 334 329 322 324 320 322 319 317 317 311 294 287 284 283 280 277 275
227 226 226 227 228 230 232 235 240 256 268 279 290 304 306 315 319 320 322 322 320 325 324 316 322 320 321 316 317 315 310 298 290 286 280 277 275 273
226 225 226 227 227 227 227 229 236 244 255 271 284 292 300 316 321 317 317 316 314 319 323 313 324 319 319 316 316 313 311 303 291 283 280 275 273 271
222 223 223 223 223 226 225 227 230 236 248 262 279 296 302 308 312 308 313 315 316 316 322 316 324 321 318 316 319 317 311 301 292 291 282 276 273 271
218 220 222 222 222 222 224 227 230 236 245 256 268 280 291 302 306 304 309 310 312 315 317 315 319 322 315 315 312 301 299 298 295 291 285 271 272 269
219 220 219 219 219 221 224 227 229 234 243 253 264 280 292 303 303 302 308 310 311 305 318 317 316 315 293 300 315 310 302 298 295 293 292 279 267 262
222 220 220 218 216 216 219 223 224 232 240 251 267 284 294 298 300 307 313 311 308 307 316 319 313 309 304 294 291 305 297 293 290 287 282 276 270 267
224 223 218 214 210 211 211 215 222 230 237 249 268 282 291 298 306 312 311 314 313 316 322 325 320 320 294 289 292 295 298 296 291 288 286 284 280 274
218 221 213 207 206 208 208 212 222 227 236 250 265 279 290 299 310 318 318 321 316 319 325 330 328 313 298 292 290 291 294 289 291 287 284 280 275 268
203 204 205 207 206 206 206 214 219 227 237 252 268 285 299 307 317 322 322 323 319 324 327 333 328 318 299 290 290 287 288 289 288 288 284 280 275 270
201 201 202 205 210 207 208 212 216 224 237 251 270 291 306 313 319 323 326 325 325 326 328 331 330 323 315 302 287 289 289 288 290 288 283 277 278 273
212 203 203 207 203 205 207 208 217 223 240 256 277 298 309 313 321 326 329 329 328 330 325 327 326 315 305 300 308 298 293 292 291 287 281 274 274 274
213 208 205 206 202 202 206 208 211 221 236 255 277 295 306 315 325 330 330 331 333 331 326 324 324 316 301 297 302 306 299 293 292 288 285 280 273 274
205 211 209 199 199 201 204 208 213 219 237 252 272 291 306 318 329 332 332 333 337 329 321 321 326 327 313 307 300 301 304 300 295 290 286 279 274 272
209 207 199 193 197 199 203 209 213 223 240 262 278 291 309 322 331 334 332 337 335 331 326 327 328 325 316 308 302 304 308 310 307 299 285 270 264 260
211 201 193 191 195 198 202 208 213 223 242 264 281 297 315 325 332 332 333 339 337 336 335 327 327 324 315 311 307 307 309 313 314 311 301 287 269 259
Wind_Speed_850mb
68 63 58 55 51 47 42 40 38 31 37 34 34 39 47 54 58 65 68 69 70 71 69 70 71 70 71 74 76 73 69 66 66 66 66 67 69 68
73 69 65 60 54 49 45 43 41 39 36 36 38 43 47 52 55 63 62 63 62 65 69 72 74 73 74 75 78 80 81 80 78 77 76 75 75 74
79 75 70 63 58 52 48 45 44 45 47 46 45 44 47 53 57 62 66 67 63 61 63 65 68 70 76 82 83 82 83 86 88 89 90 91 91 89
85 80 74 69 62 56 51 48 45 44 47 48 50 51 53 59 66 67 69 73 75 76 77 74 73 76 80 82 83 84 87 88 88 87 89 92 92 90
87 83 77 73 65 61 56 50 46 45 45 51 53 52 56 59 65 67 71 75 77 83 82 80 76 80 88 89 90 90 91 93 89 84 88 94 95 97
89 84 78 73 66 62 58 52 48 44 44 50 51 51 55 59 65 70 75 77 83 85 82 89 93 98 99 98 98 99 101 98 96 90 87 95 97 96
93 87 82 76 70 66 61 54 46 44 45 48 49 51 54 57 63 69 75 80 88 75 91 105 107 109 108 105 106 104 96 85 85 85 86 86 85 85
98 92 85 78 74 69 61 54 48 44 46 46 45 50 49 54 58 64 72 80 83 84 104 113 106 115 114 108 103 103 103 83 86 91 95 96 93 91
99 93 86 81 74 69 62 57 51 47 45 42 46 41 46 46 54 60 67 72 79 89 97 120 109 116 107 117 113 110 108 87 84 88 90 93 94 94
100 94 86 81 77 71 64 58 48 41 39 38 40 36 38 41 48 56 64 73 79 81 83 113 105 111 120 120 116 116 111 87 82 83 87 90 95 95
97 90 87 82 74 71 67 57 48 39 37 37 35 31 30 33 41 55 59 70 86 87 79 71 105 120 127 125 116 112 79 69 61 74 85 94 95 95
98 90 86 79 78 76 67 56 46 37 37 34 29 28 30 33 38 46 54 62 69 86 54 70 96 96 89 117 111 108 101 92 89 86 83 88 86 84
95 94 90 85 80 72 64 54 41 39 37 32 29 28 30 33 39 44 46 54 65 77 78 68 92 94 81 114 136 126 109 101 96 92 85 79 85 93
98 91 88 83 76 66 58 48 41 43 35 30 28 27 31 34 37 45 47 54 60 71 75 62 83 88 101 109 118 133 106 102 98 98 91 87 81 81
85 83 82 80 70 58 52 50 47 38 33 29 26 27 31 36 39 43 50 56 65 69 73 72 74 89 88 105 124 138 115 117 104 90 76 79 83 89
69 70 70 70 64 63 59 48 43 39 33 28 26 28 32 35 37 46 58 64 76 80 77 81 81 79 100 103 108 136 127 112 115 100 98 101 99 93
75 76 72 72 70 61 52 48 43 35 28 25 24 27 32 37 40 47 58 68 75 85 93 93 92 90 92 98 118 120 126 125 112 102 93 107 105 99
79 91 91 81 71 60 55 49 41 32 27 24 22 26 32 38 45 52 58 68 77 85 89 97 104 104 105 99 78 107 109 110 111 99 92 99 112 98
85 86 86 80 68 58 54 45 36 29 26 23 20 24 31 38 46 56 63 68 78 85 94 98 97 81 92 109 107 70 99 108 111 108 97 97 111 106
92 85 81 68 62 61 54 45 38 31 26 23 22 24 29 39 48 58 65 70 77 89 102 99 95 87 83 108 132 138 88 96 101 110 103 101 108 106
81 79 71 65 64 57 50 42 36 28 26 23 21 26 29 37 48 59 66 71 77 86 99 103 103 101 103 103 111 119 112 90 89 103 106 101 100 98
85 79 73 67 63 55 47 40 31 26 22 22 20 26 29 36 50 61 67 74 81 89 99 106 109 106 97 89 109 123 131 120 102 92 89 97 106 92
80 70 66 63 57 50 42 35 30 24 22 22 24 26 30 40 50 60 67 74 86 97 100 109 112 102 95 95 101 115 120 123 113 108 103 80 85 104
Wind_Direction_850mb
237 238 241 243 245 249 253 258 262 264 279 288 298 307 318 323 325 324 325 325 326 326 326 321 319 319 316 313 311 309 306 300 298 297 294 292 289 287
236 237 239 241 245 249 254 258 263 265 264 279 287 297 305 309 314 315 318 319 322 321 321 321 321 320 316 313 313 314 312 306 300 296 292 290 288 284
234 236 238 241 244 247 252 258 264 269 273 280 287 295 300 306 312 316 318 317 316 316 316 318 318 317 316 316 315 315 309 304 301 296 292 288 286 283
233 234 236 238 241 245 249 253 258 266 274 283 292 299 309 320 321 325 325 327 328 329 330 329 324 318 315 316 319 313 308 305 302 298 292 286 285 282
234 234 235 237 238 242 246 249 254 259 271 282 290 301 313 318 322 324 327 329 328 329 330 328 326 324 323 325 322 317 312 307 304 297 287 284 281 280
233 232 233 235 238 241 243 245 249 258 270 279 289 302 312 322 324 326 325 328 327 327 334 328 328 327 327 326 320 316 313 308 303 297 286 278 277 277
229 229 231 232 235 237 239 243 246 255 267 278 288 300 315 324 323 327 325 326 323 331 333 326 327 324 324 323 319 317 313 303 296 290 287 284 280 278
228 227 228 229 231 235 238 238 244 256 266 272 290 305 317 317 320 323 325 328 329 334 329 322 324 320 322 319 317 317 311 294 287 284 283 280 277 275
227 226 226 227 228 230 232 235 240 256 268 279 290 304 306 315 319 320 322 322 320 325 324 316 322 320 321 316 317 315 310 298 290 286 280 277 275 273
226 225 226 227 227 227 227 229 236 244 255 271 284 292 300 316 321 317 317 316 314 319 323 313 324 319 319 316 316 313 311 303 291 283 280 275 273 271
222 223 223 223 223 226 225 227 230 236 248 262 279 296 302 308 312 308 313 315 316 316 322 316 324 321 318 316 319 317 311 301 292 291 282 276 273 271
218 220 222 222 222 222 224 227 230 236 245 256 268 280 291 302 306 304 309 310 312 315 317 315 319 322 315 315 312 301 299 298 295 291 285 271 272 269
219 220 219 219 219 221 224 227 229 234 243 253 264 280 292 303 303 302 308 310 311 305 318 317 316 315 293 300 315 310 302 298 295 293 292 279 267 262
222 220 220 218 216 216 219 223 224 232 240 251 267 284 294 298 300 307 313 311 308 307 316 319 313 309 304 294 291 305 297 293 290 287 282 276 270 267
224 223 218 214 210 211 211 215 222 230 237 249 268 282 291 298 306 312 311 314 313 316 322 325 320 320 294 289 292 295 298 296 291 288 286 284 280 274
218 221 213 207 206 208 208 212 222 227 236 250 265 279 290 299 310 318 318 321 316 319 325 330 328 313 298 292 290 291 294 289 291 287 284 280 275 268
203 204 205 207 206 206 206 214 219 227 237 252 268 285 299 307 317 322 322 323 319 324 327 333 328 318 299 290 290 287 288 289 288 288 284 280 275 270
201 201 202 205 210 207 208 212 216 224 237 251 270 291 306 313 319 323 326 325 325 326 328 331 330 323 315 302 287 289 289 288 290 288 283 277 278 273
212 203 203 207 203 205 207 208 217 223 240 256 277 298 309 313 321 326 329 329 328 330 325 327 326 315 305 300 308 298 293 292 291 287 281 274 274 274
213 208 205 206 202 202 206 208 211 221 236 255 277 295 306 315 325 330 330 331 333 331 326 324 324 316 301 297 302 306 299 293 292 288 285 280 273 274
205 211 209 199 199 201 204 208 213 219 237 252 272 291 306 318 329 332 332 333 337 329 321 321 326 327 313 307 300 301 304 300 295 290 286 279 274 272
209 207 199 193 197 199 203 209 213 223 240 262 278 291 309 322 331 334 332 337 335 331 326 327 328 325 316 308 302 304 308 310 307 299 285 270 264 260
211 201 193 191 195 198 202 208 213 223 242 264 281 297 315 325 332 332 333 339 337 336 335 327 327 324 315 311 307 307 309 313 314 311 301 287 269 259